This demonstration page uses our WeatherBlox Daily Observations layout. Learn more.

38.89511, -77.03637

Hourly Observations for September 7, 2015

Temp ( °F °C ) Dew Point ( °F °C ) Humidity (%) Winds ( mph kmh ) Pressure ( in mb ) Visibility ( mi km ) Precip ( " mm )
12:52 am 00:52 Clear 73 23 63 17 69 69 Calm 30.15 1021 10 16.09344 0 0
1:52 am 01:52 Clear 72 22 63 17 73 73 Calm 30.15 1021 10 16.09344 0 0
2:52 am 02:52 Partly Cloudy 72 22 63 17 73 73 Calm 30.12 1020 10 16.09344 0 0
3:52 am 03:52 Mostly Cloudy 72 22 63 17 73 73 Calm 30.12 1020 10 16.09344 0 0
4:52 am 04:52 Mostly Cloudy 72 22 63 17 73 73 Calm 30.12 1020 10 16.09344 0 0
5:16 am 05:16 Mostly Cloudy 70 21 63 17 78 78 N 3 6 30.15 1021 10 16.09344 0 0
5:48 am 05:48 Partly Cloudy 72 22 63 17 73 73 Calm 30.15 1021 10 16.09344 0 0
5:52 am 05:52 Partly Cloudy 70 21 63 17 78 78 Calm 30.15 1021 10 16.09344 0 0
6:52 am 06:52 Partly Cloudy 70 21 63 17 78 78 Calm 30.15 1021 10 16.09344 0 0
7:52 am 07:52 Mostly Sunny 72 22 66 19 83 83 Calm 30.15 1021 10 16.09344 0 0
8:52 am 08:52 Mostly Sunny 75 24 68 20 78 78 SSW 5 7 30.18 1022 10 16.09344 0 0
9:52 am 09:52 Mostly Sunny 79 26 70 21 74 74 SSE 5 7 30.15 1021 10 16.09344 0 0
10:52 am 10:52 Partly Cloudy 82 28 70 21 66 66 S 8 13 30.15 1021 10 16.09344 0 0
11:52 am 11:52 Partly Cloudy 82 28 68 20 62 62 SSE 7 11 30.15 1021 10 16.09344 0 0
12:52 pm 12:52 Partly Cloudy 86 30 66 19 52 52 S 7 11 30.12 1020 10 16.09344 0 0
1:52 pm 13:52 Partly Cloudy 88 31 66 19 49 49 S 8 13 30.12 1020 10 16.09344 0 0
2:52 pm 14:52 Partly Cloudy 90 32 64 18 43 43 S 10 17 30.09 1019 10 16.09344 0 0
3:52 pm 15:52 Partly Cloudy 90 32 66 19 46 46 S 10 17 30.06 1018 10 16.09344 0 0
4:52 pm 16:52 Mostly Sunny 90 32 66 19 46 46 SSE 10 17 30.03 1017 10 16.09344 0 0
5:52 pm 17:52 Partly Cloudy 88 31 68 20 52 52 S 7 11 30.03 1017 10 16.09344 0 0
6:52 pm 18:52 Partly Cloudy 86 30 70 21 59 59 S 9 15 30.03 1017 10 16.09344 0 0
7:52 pm 19:52 Mostly Clear 84 29 72 22 66 66 S 9 15 30.06 1018 10 16.09344 0 0
8:52 pm 20:52 Clear 82 28 70 21 66 66 S 9 15 30.06 1018 10 16.09344 0 0
9:52 pm 21:52 Clear 81 27 70 21 70 70 S 12 19 30.06 1018 10 16.09344 0 0
10:52 pm 22:52 Mostly Clear 79 26 70 21 74 74 S 10 17 30.06 1018 10 16.09344 0 0
11:52 pm 23:52 Mostly Clear 77 25 70 21 79 79 SSW 10 17 30.09 1019 10 16.09344 0 0

Powered by AerisWeather